Flag for Romania Weather past 2 weeks in Bucharest, Romania

Now
39 °F

Light rain. Partly sunny.


Feels Like: 34 °F
Forecast: 33 / 37 °F
Wind: 7 mph from Northeast

Location: Bucharest / Imh

Current Time: Jan 27, 2015 at 4:29:46 PM

Latest Report: Jan 27, 2015 at 4:00 PM


Visibility: 6 mi

Pressure: 29.98 "Hg

Humidity: 93%

Dew point: 37 °F

Location of BucharestLocation

Historic Weather in Bucharest — Graph

°F

Bucharest temperature yesterday

Maximum temperature yesterday: 39 °F (at 2:30 PM)
Minimum temperature yesterday: 36 °F (at 12:00 AM)
Average temperature yesterday: 37 °F

Past Weeks' High & Low Weather Summary

 TemperatureHumidityPressure
High46 °F (Jan 14, 2:00 PM)100% (Jan 12, 6:00 PM)30.39 "Hg (Jan 12, 6:00 PM)
Low19 °F (Jan 16, 7:30 AM)57% (Jan 14, 2:00 PM)29.77 "Hg (Jan 24, 6:00 AM)
Average34 °F95%30.08 "Hg
* Reported Jan 12 3:00 PM — Jan 27 3:30 PM, Bucharest, Weather by CustomWeather, © 2014

Note: Actual official high and low records may vary slightly from our data, if they occured in-between our weather recording intervals... More about our weather records

Advertising

Bucharest weather history for previous 24 hours

 ConditionsComfort  
Time TempWeatherWind HumidityBarometerVisibility
3:30 PM
Jan 27
39 °FLight rain. Partly sunny.6 mph93%29.98 "HgN/A
3:00 PM39 °FLight rain. Broken clouds.6 mph93%29.98 "HgN/A
2:30 PM39 °FLight rain. Broken clouds.5 mph93%29.98 "HgN/A
2:00 PM39 °FPartly sunny.7 mph93%30.01 "HgN/A
1:30 PM39 °FPartly sunny.7 mph93%30.01 "HgN/A
1:00 PM39 °FPartly sunny.7 mph100%30.01 "HgN/A
12:30 PM39 °FPartly sunny.6 mph100%30.04 "HgN/A
12:00 PM39 °FPartly sunny.7 mph93%30.04 "HgN/A
11:30 AM39 °FBroken clouds.5 mph93%30.07 "HgN/A
11:00 AM37 °FBroken clouds.5 mph100%30.07 "HgN/A
10:30 AM39 °FMore clouds than sun.5 mph93%30.07 "Hg4 mi
10:00 AM37 °FFog.6 mph100%30.07 "Hg2 mi
9:30 AM37 °FFog.5 mph100%30.07 "Hg2 mi
9:00 AM37 °FFog.2 mph93%30.09 "Hg2 mi
8:30 AM37 °FFog.2 mph93%30.09 "Hg1 mi
8:00 AM36 °FFog.2 mph100%30.09 "Hg1 mi
7:30 AM36 °FFog.3 mph100%30.09 "Hg1 mi
5:30 AM37 °FFog.2 mph93%30.09 "Hg2 mi
4:30 AM37 °FFog.2 mph93%30.12 "Hg2 mi
4:00 AM37 °FFog.1 mph93%30.12 "Hg2 mi
3:30 AM37 °FFog.2 mph93%30.12 "Hg1 mi
3:00 AM37 °FFog.1 mph93%30.12 "Hg1 mi
2:30 AM37 °FFog.1 mph93%30.15 "Hg1 mi
2:00 AM37 °FFog.1 mph93%30.15 "Hg1 mi
1:30 AM37 °FFog.2 mph93%30.15 "Hg1 mi
1:00 AM37 °FFog.1 mph93%30.15 "Hg2 mi
12:30 AM37 °FFog.No wind93%30.18 "Hg2 mi
12:00 AM37 °FFog.1 mph93%30.18 "Hg1 mi
11:30 PM
Jan 26
37 °FOvercast.2 mph100%30.18 "HgN/A
11:00 PM37 °FMostly cloudy.1 mph100%30.18 "HgN/A
10:30 PM39 °FMostly cloudy.2 mph93%30.18 "HgN/A
10:00 PM37 °FOvercast.2 mph100%30.18 "HgN/A
9:30 PM39 °FOvercast.2 mph93%30.18 "HgN/A
9:00 PM39 °FOvercast.2 mph93%30.18 "HgN/A
7:00 PM37 °FFog.2 mph93%30.21 "Hg2 mi
6:30 PM37 °FFog.3 mph100%30.18 "Hg3 mi
6:00 PM37 °FPartly cloudy.3 mph100%30.18 "Hg4 mi
5:30 PM39 °FPassing clouds.2 mph93%30.18 "HgN/A
5:00 PM37 °FDrizzle. Broken clouds.2 mph100%30.18 "Hg4 mi
4:30 PM37 °FDrizzle. Fog.3 mph100%30.18 "Hg3 mi
4:00 PM37 °FDrizzle. Fog.3 mph100%30.18 "Hg2 mi
Weather by CustomWeather, © 2014

See weather overviewHow to use our weather pages